Domov               UVHVVR             MKGP            O straneh              
ZDRAVSTVENO VARSTVO RASTLIN
  MREŽA AGROMET. POSTAJ
 ► PROGNOSTIČNA OBVESTILA
AGROMETEOROLOŠKI PODATKI -
ARSO
OBVLADOVANJE TVEGANJ ZARADI
NEUGODNIH VREMENSKIH RAZMER
  ► NARAVNE NESREČE
  ► SUŠA/MOČA
  ► NAMAKANJE
  ► ŽLED (gozdarstvo)
KARTOGRAFSKI PRIKAZI
SPLETNE POVEZAVE
PROJEKTI IN PUBLIKACIJE

AGROMETEOROLOŠKA MREŽA: VREMENSKE POSTAJE IN FENOLOŠKA OPAZOVANJA

Pregled podatkov za lokacijo Slovenske Konjice, meteorološka postaja 37885

Pregled senzorjev na lokaciji

ID Ime Zadnja
vrednost
Datum
zadnje
spremembe
Tip
senzorja
4060 Temperatura 2 m ( °C) 23 °C 17.10.2017 14:00 50YA
4061 Relativna vlaga 2 m (% RH) 56,17 % RH 17.10.2017 14:00 50YA
4062 Padavine 0.2 mm (mm) 0 mm 17.10.2017 14:00 Rain-O-Matic
4063 Omočenost lista (U) 0 U 17.10.2017 14:00 A730WET

Pregled podatkov zadnjih 24 ur

Zap.
št.
Datum in čas Slovenske Konjice
Omočenost
lista
Padavine
0.2
mm
Relativna
vlaga
2
m
Temperatura
2
m
0 17.10.2017 13:00 0 0 56,17 23
1 17.10.2017 12:30 0 0 54,26 22,76
2 17.10.2017 12:00 0 0,2 56,09 22,39
3 17.10.2017 11:30 0 0 57,39 22,03
4 17.10.2017 11:00 0 0 61,1 21,25
5 17.10.2017 10:30 0 0 60,17 20,54
6 17.10.2017 10:00 0 0 62,34 19,49
7 17.10.2017 09:30 0 0 64,52 18,36
8 17.10.2017 09:00 0 0 66,84 17,61
9 17.10.2017 08:30 7 0 72,72 16,09
10 17.10.2017 08:00 10 0 78,24 13,99
11 17.10.2017 07:30 10 0 80,02 12,97
12 17.10.2017 07:00 10 0 83,76 12,28
13 17.10.2017 06:30 10 0 98,78 9,45
14 17.10.2017 06:00 10 0 99,29 8,42
15 17.10.2017 05:30 10 0 98,75 8,08
16 17.10.2017 05:00 10 0 98,63 8,69
17 17.10.2017 04:30 10 0 98 9,01
18 17.10.2017 04:00 10 0 98,93 10,06
19 17.10.2017 03:30 10 0 98,78 9,43
20 17.10.2017 03:00 10 0 98,17 9,45
21 17.10.2017 02:30 10 0 97,83 10,11
22 17.10.2017 02:00 10 0 98,1 10,6
23 17.10.2017 01:30 10 0 98,44 10,6
24 17.10.2017 01:00 10 0 98,58 10,48
25 17.10.2017 00:30 10 0 98,07 10,43
26 17.10.2017 00:00 10 0 98,58 10,4
27 16.10.2017 23:30 10 0 97,8 9,91
28 16.10.2017 23:00 10 0 97,61 10,26
29 16.10.2017 22:30 10 0 97,22 10,7
30 16.10.2017 22:00 10 0 96,63 10,72
31 16.10.2017 21:30 10 0 96,26 11,04
32 16.10.2017 21:00 10 0 96,34 11,58
33 16.10.2017 20:30 10 0 96,39 11,6
34 16.10.2017 20:00 10 0 96,43 11,89
35 16.10.2017 19:30 10 0 95,04 12,09
36 16.10.2017 19:00 9 0 93,85 12,75
37 16.10.2017 18:30 5 0 92,87 12,94
38 16.10.2017 18:00 2 0 90,35 13,89
39 16.10.2017 17:30 0 0 84,03 15,38
40 16.10.2017 17:00 0 0 75,73 16,78
41 16.10.2017 16:30 0 0 72,77 17,07
42 16.10.2017 16:00 0 0 68,18 18
43 16.10.2017 15:30 0 0 62,56 18,85
© 2011 Ministrstvo za kmetijstvo, gozdarstvo in prehrano. Vse pravice pridržane.